Regional Weather Roundup
Issued by NWS Green Bay, WI

Home | Current Version | Previous Version | Text Only | Print | Product List | Glossary On
Versions: 1 2 3 4 5 6 7 8 9 10 11 12 13 14 15 16 17 18 19 20 21 22 23 24 25 26 27 28 29 30 31 32 33 34 35 36 37 38 39 40 41 42 43 44 45 46 47 48 49 50
000
ASUS43 KGRB 170600
RWRGRB

NORTH-CENTRAL AND NORTHEAST WISCONSIN REGIONAL WEATHER ROUNDUP
NATIONAL WEATHER SERVICE GREEN BAY WI
1200 AM CST FRI NOV 17 2017

WIZ005-009-010>012-018-019-170700-
NORTH CENTRAL WISCONSIN

CITY           SKY/WX    TMP DP  RH WIND       PRES   REMARKS
IRONWOOD       FLURRIES  29  24  82 SE9G18    30.05F
MANITOWISH WTR NOT AVBL
ARBOR VITAE    NOT AVBL
EAGLE RIVER    CLOUDY    26  21  80 S8        30.11S
LAND O LAKES   NOT AVBL
RHINELANDER    CLOUDY    27  23  85 SE7       30.11F
PHILLIPS       CLOUDY    29  25  84 SE9       30.06F
ANTIGO         NOT AVBL
TOMAHAWK       NOT AVBL
MERRILL        CLOUDY    29  25  83 SE10G16   30.12F
$$

WIZ013-073-170700-
NORTHEAST WISCONSIN

CITY           SKY/WX    TMP DP  RH WIND       PRES   REMARKS
IRON MOUNTAIN  CLOUDY    26  19  74 SE5       30.18F
MARINETTE      CLOUDY    32  25  75 S3        30.23
$$

WIZ017-030-035>037-045-170700-
CENTRAL WISCONSIN

CITY           SKY/WX    TMP DP  RH WIND       PRES   REMARKS
MEDFORD        NOT AVBL
WAUSAU         CLOUDY    29  24  82 SE13      30.11F
MOSINEE        NOT AVBL
MARSHFIELD     CLOUDY    31  24  75 SE15      30.08F
WISC RAPIDS    CLOUDY    32  25  75 SE9G18    30.14F
STEVENS POINT  NOT AVBL
WAUPACA        NOT AVBL
SHAWANO        CLOUDY    32  26  78 SE3       30.21R
CLINTONVILLE   NOT AVBL
WAUTOMA        CLOUDY    33  26  75 SE15      30.16F
$$

WIZ038-039-048-051-170700-
FOX VALLEY

CITY           SKY/WX    TMP DP  RH WIND       PRES   REMARKS
NWS GREEN BAY  CLOUDY    32  27  81 CALM      30.22R
APPLETON       NOT AVBL
OSHKOSH        CLOUDY    33  27  78 S3        30.20S
FOND DU LAC    CLOUDY    33  27  78 S5        30.21R
$$

WIZ022-050-052-170700-
EAST CENTRAL WISCONSIN

CITY           SKY/WX    TMP DP  RH WIND       PRES   REMARKS
EPHRAIM        CLOUDY    29  25  83 CALM      30.20S
WASHINGTON ISL NOT AVBL
STURGEON BAY   CLOUDY    30  25  81 NW3       30.22R
MANITOWOC      CLOUDY    32  28  85 NW5       30.22R
SHEBOYGAN      CLOUDY    32  30  92 NW3       30.21R
$$

LMZ563-521-522-541>543-170700-
LAKESHORE

STATION/POSITION TIME  TEMP    WIND        PRES    VSBY  WAVE
                       AIR SEA DIR/SP/G                  HT/PER
                 (UTC) (F)     (DEG/KT/KT) (MB)    (MI)  (FT/S)
SHEBOYGAN LKSHOR 0500   37     120/  9/ 10 1023.3F
KEWAUNEE LKSHORE 0530   36     120/  4/  8 1022.2R
NORTHPORT PIER   0540   33      90/ 10/ 12 1023.0F
N MID LAKE BUOY  0450   32 49   80/ 10/ 14 1024.5F         1/ 4
SISTER BAY LKSHO 0519   32        CALM       N/A
MENOMINEE LKSHOR 0530   32     100/  5/  9 1023.0R
$$




USA.gov is the U.S. government's official web portal to all federal, state and local government web resources and services.